TimeMDT,TemperatureF,Dew PointF,Humidity,Sea Level PressureIn,VisibilityMPH,Wind Direction,Wind SpeedMPH,Gust SpeedMPH,PrecipitationIn,Events,Conditions,WindDirDegrees,DateUTC
12:21 AM,23.0,17.6,80,30.36,10.0,NW,12.7,-,N/A,,Overcast,320,2012-10-26 06:21:00
12:53 AM,23.0,18.0,81,30.51,10.0,NNW,12.7,-,N/A,,Overcast,330,2012-10-26 06:53:00
1:18 AM,23.0,17.6,80,30.37,10.0,NW,9.2,-,N/A,,Overcast,320,2012-10-26 07:18:00
1:53 AM,21.9,18.0,85,30.51,10.0,WNW,10.4,-,N/A,,Overcast,300,2012-10-26 07:53:00
2:53 AM,21.9,18.0,85,30.52,10.0,NW,9.2,-,N/A,,Overcast,320,2012-10-26 08:53:00
3:53 AM,21.9,18.0,85,30.51,10.0,West,5.8,-,N/A,,Overcast,280,2012-10-26 09:53:00
4:53 AM,21.9,18.0,85,30.51,10.0,Calm,Calm,-,N/A,,Overcast,0,2012-10-26 10:53:00
5:53 AM,21.9,18.0,85,30.51,10.0,WNW,3.5,-,N/A,,Overcast,300,2012-10-26 11:53:00
6:15 AM,19.4,17.6,93,30.38,10.0,WNW,4.6,-,N/A,,Scattered Clouds,300,2012-10-26 12:15:00
6:51 AM,17.6,15.8,93,30.37,10.0,SW,3.5,-,N/A,,Mostly Cloudy,220,2012-10-26 12:51:00
6:53 AM,16.0,15.1,96,30.53,10.0,SW,3.5,-,N/A,,Mostly Cloudy,220,2012-10-26 12:53:00
7:16 AM,15.8,14.0,93,30.36,10.0,South,3.5,-,N/A,,Scattered Clouds,180,2012-10-26 13:16:00
7:53 AM,15.1,12.9,91,30.51,10.0,Calm,Calm,-,N/A,,Partly Cloudy,0,2012-10-26 13:53:00
8:53 AM,24.8,19.4,80,30.36,10.0,SSE,3.5,-,N/A,,Clear,150,2012-10-26 14:53:00
9:53 AM,28.9,21.9,75,30.48,10.0,SSW,10.4,-,N/A,,Clear,210,2012-10-26 15:53:00
10:53 AM,33.1,21.0,61,30.44,10.0,SW,10.4,-,N/A,,Clear,220,2012-10-26 16:53:00
11:53 AM,36.0,19.9,52,30.40,10.0,SW,8.1,-,N/A,,Clear,230,2012-10-26 17:53:00
12:53 PM,37.0,18.0,46,30.36,10.0,Calm,Calm,-,N/A,,Clear,0,2012-10-26 18:53:00
1:53 PM,39.0,18.0,43,30.32,10.0,West,8.1,-,N/A,,Clear,260,2012-10-26 19:53:00
2:53 PM,37.9,17.1,43,30.30,10.0,WSW,4.6,-,N/A,,Clear,240,2012-10-26 20:53:00
3:53 PM,39.0,15.1,38,30.27,10.0,Calm,Calm,-,N/A,,Clear,0,2012-10-26 21:53:00
4:53 PM,37.0,19.9,50,30.25,10.0,South,3.5,-,N/A,,Clear,180,2012-10-26 22:53:00
5:53 PM,32.0,24.1,73,30.25,10.0,SSE,4.6,-,N/A,,Scattered Clouds,160,2012-10-26 23:53:00
6:53 PM,28.0,23.0,81,30.27,10.0,South,6.9,-,N/A,,Clear,170,2012-10-27 00:53:00
7:53 PM,28.0,23.0,81,30.26,10.0,South,9.2,-,N/A,,Clear,170,2012-10-27 01:53:00
8:53 PM,28.0,23.0,81,30.22,10.0,South,5.8,-,N/A,,Clear,170,2012-10-27 02:53:00
9:53 PM,26.1,21.9,84,30.20,10.0,SSE,4.6,-,N/A,,Clear,160,2012-10-27 03:53:00
10:53 PM,27.0,23.0,85,30.18,10.0,South,10.4,-,N/A,,Clear,180,2012-10-27 04:53:00
11:53 PM,27.0,21.9,81,30.15,10.0,Calm,Calm,-,N/A,,Clear,0,2012-10-27 05:53:00